Regional Weather Roundup
Issued by NWS

Home | Current Version | Previous Version | Graphics & Text | Print | Product List | Glossary On
Versions: 1 2 3 4 5 6 7 8 9 10 11 12 13 14 15 16 17 18 19 20 21 22 23 24 25 26 27 28 29 30 31 32 33 34 35 36 37 38 39 40 41 42 43 44 45 46 47 48 49 50
000
ASUS45 KCYS 251510
RWRWY

WYOMING REGIONAL WEATHER ROUNDUP
NATIONAL WEATHER SERVICE CHEYENNE WY
800 AM MST SUN JAN 25 2015

NOTE:  "FAIR" INDICATES FEW OR NO CLOUDS BELOW 12,000 FEET
WITH NO SIGNIFICANT WEATHER AND/OR OBSTRUCTIONS TO VISIBILITY.

WYZ001-251600-
YELLOWSTONE NATIONAL PARK

CITY           SKY/WX    TMP DP  RH WIND       PRES   REMARKS
LK YELLOWSTONE   N/A     24  22  91 CALM      30.37S
W YELLOWSTONE  NOT AVBL

$$
WYZ002>013-054>058-071-098>099-251600-
NORTHERN WYOMING

CITY           SKY/WX    TMP DP  RH WIND       PRES   REMARKS
JACKSON        CLOUDY    25  25 100 CALM      30.38R
CODY           FAIR      48  27  43 W13G30    30.10S
GREYBULL       FAIR      17  15  92 SW5       30.15S WCI  10
WORLAND        FAIR      16  13  88 SW6       30.15R WCI   7
SHERIDAN       MOCLDY    35  29  78 S7        30.05S WCI  29
BUFFALO        MOCLDY    34  26  72 S6        30.07F WCI  29
GILLETTE       CLOUDY    36  30  79 SW10      30.07S WCI  28
HULETT           N/A    N/A N/A N/A MISG        N/A
NEWCASTLE      FAIR      28  23  80 CALM      30.09R

$$
WYZ014>020-022>026-101>103-251600-
CENTRAL WYOMING

CITY           SKY/WX    TMP DP  RH WIND       PRES   REMARKS
BIG PINEY      FAIR      22  18  85 E3        30.33R
PINEDALE       FAIR      32  27  80 NW21      30.30S WCI  20
DUBOIS         CLOUDY    37  28  70 NW12G23   30.26S WCI  30
LANDER         FAIR      36  23  59 S3        30.14F
RIVERTON       FAIR      25  19  78 S6        30.16F WCI  18
CASPER         FAIR      34  24  67 SW15      30.14F WCI  24
DOUGLAS        CLOUDY    34  27  75 N6        30.13F WCI  29

$$
WYZ021-027>030-104>119-251600-
SOUTHERN WYOMING

CITY           SKY/WX    TMP DP  RH WIND       PRES   REMARKS
EVANSTON       FAIR      28  26  92 SW14      30.41F WCI  17
KEMMERER       CLOUDY    32  30  93 W13       30.40R WCI  22
FORT BRIDGER   FAIR      32  31  97 W18G26    30.41F WCI  20
ROCK SPRINGS   FAIR      32  27  81 W28G33    30.32R WCI  18
DIXON          CLOUDY    29  24  79 CALM      30.37F
RAWLINS        MOCLDY    31  26  82 W16       30.26R WCI  20
SARATOGA       CLOUDY    32  28  86 W23       30.27R WCI  19
LARAMIE        CLOUDY    34  24  67 W20       30.18R WCI  23
CHEYENNE       CLOUDY    40  23  50 NW20G28   30.13S WCI  30
TORRINGTON     CLOUDY    34  27  75 NW12      30.13R WCI  25
PINE BLUFFS    CLOUDY    36  30  80 NW10      30.15R WCI  28

$$



USA.gov is the U.S. government's official web portal to all federal, state and local government web resources and services.